Location: Six Mile Lake
(44.9000°N, 79.7170°W)
Time: 02:36:53
(UTC-04:00)

LO-87 - Pass Details

Date: 01 July 2022
Orbit: 450 x 466 km, 97.4° (Epoch: 14 August)

Event Time Altitude Azimuth Distance (km) Brightness Sun altitude
Exits shadow 00:36:58 56° 72° (ENE) 557 ? -21.2°
Drops below altitude 10° 00:40:22 10° 356° (N) 1,623 ? -21.3°
Sets 00:42:27 0° 352° (N) 2,508 ? -21.4°
